Location: Home
(42.5358°N, 72.7383°W)
Time: 21:39:38
(UTC-05:00)

Vanguard 2 Rocket - Pass Details

Date: 08 December 2021
Orbit: 554 x 3325 km, 32.9° (Epoch: 21 January)

Event Time Altitude Azimuth Distance (km) Brightness Sun altitude
Rises 15:06:17 0° 200° (SSW) 2,728 10.6 9.6°
Reaches altitude 10° 15:10:52 10° 151° (SSE) 2,049 8.9 9.0°
Maximum altitude 15:11:11 10° 147° (SSE) 2,067 8.9 9.0°
Drops below altitude 10° 15:11:34 10° 142° (SE) 2,101 8.9 8.9°
Sets 15:17:14 0° 98° (E) 3,568 9.6 8.1°
